EEST,Max TemperatureF,Mean TemperatureF,Min TemperatureF,Max Dew PointF,MeanDew PointF,Min DewpointF,Max Humidity, Mean Humidity, Min Humidity, Max Sea Level PressureIn, Mean Sea Level PressureIn, Min Sea Level PressureIn, Max VisibilityMiles, Mean VisibilityMiles, Min VisibilityMiles, Max Wind SpeedMPH, Mean Wind SpeedMPH, Max Gust SpeedMPH,PrecipitationIn, CloudCover, Events, WindDirDegrees
2013-8-1,102,80,59,50,39,30,72,28,8,29.62,29.57,29.53,,,,9,5,,0.00,,,248
2013-8-2,102,80,59,54,40,30,72,27,8,29.68,29.62,29.56,,,,8,5,,0.00,,,236
2013-8-3,102,80,59,54,45,37,72,33,11,29.68,29.61,29.56,,,,10,5,,0.00,,,204
2013-8-4,104,84,64,52,42,28,56,25,8,29.65,29.59,29.53,,,,14,5,,0.00,,,222
2013-8-5,98,81,64,50,42,34,46,28,10,29.65,29.61,29.56,,,,12,7,,0.00,,,330
2013-8-6,98,81,64,50,43,36,52,29,11,29.74,29.67,29.62,,,,10,5,,0.00,,,214
2013-8-7,102,80,59,54,42,30,77,31,8,29.68,29.64,29.59,,,,10,5,,0.00,,,244
2013-8-8,100,80,60,52,44,36,63,31,11,29.68,29.63,29.59,,,,14,5,,0.00,,,201
2013-8-9,100,82,64,57,47,37,64,33,11,29.68,29.63,29.56,6,6,6,10,5,,0.00,1,,346
2013-8-10,102,83,64,57,46,37,57,31,11,29.65,29.59,29.53,6,6,6,10,4,,0.00,2,,235
2013-8-11,104,83,62,55,45,34,77,33,9,29.71,29.63,29.59,6,6,6,10,4,,0.00,1,,230
2013-8-12,102,82,62,55,44,34,73,29,9,29.77,29.72,29.68,,,,13,4,,0.00,,,226
2013-8-13,102,82,62,55,45,36,73,31,10,29.74,29.70,29.65,,,,10,4,,0.00,,,219
2013-8-14,102,83,64,55,45,34,68,32,9,29.74,29.68,29.62,,,,10,5,,0.00,,,225
2013-8-15,104,82,60,54,42,32,72,28,8,29.71,29.67,29.62,,,,9,5,,0.00,,,253
2013-8-16,105,82,60,52,41,25,68,31,6,29.71,29.65,29.59,,,,12,5,,0.00,,,268
2013-8-17,105,84,62,50,42,36,59,28,9,29.71,29.66,29.59,,,,12,6,,0.00,,,292
2013-8-18,102,82,62,55,45,32,77,31,9,29.65,29.62,29.56,,,,15,6,,0.00,,,239
2013-8-19,100,82,64,57,48,32,73,32,9,29.68,29.63,29.59,6,6,6,9,4,,0.00,3,,233
2013-8-20,100,84,68,54,45,32,56,29,10,29.74,29.68,29.62,6,6,6,14,5,,0.00,2,,191
2013-8-21,98,83,68,54,44,36,60,29,11,29.71,29.69,29.65,6,6,6,13,5,,0.00,2,,346
2013-8-22,100,82,64,54,46,34,60,32,10,29.74,29.71,29.68,,,,10,4,,0.00,,,241
2013-8-23,104,83,62,54,45,36,72,31,10,29.77,29.73,29.65,6,6,6,16,4,,0.00,1,,293
2013-8-24,98,80,62,55,46,32,68,34,10,29.77,29.72,29.68,,,,16,6,,0.00,,,288
2013-8-25,96,81,66,57,49,39,73,37,14,29.77,29.73,29.68,6,6,6,9,5,,0.00,1,,15
2013-8-26,100,81,62,55,45,36,68,33,11,29.77,29.73,29.68,6,6,3,7,4,,0.00,1,,296
2013-8-27,101,82,62,54,43,34,68,29,6,29.74,29.70,29.57,12,7,6,10,4,,0.00,1,,267
2013-8-28,105,84,64,54,41,30,63,25,4,29.80,29.70,29.55,12,12,12,8,5,,0.00,,,254
2013-8-29,105,84,64,52,43,36,60,28,9,29.77,29.71,29.65,6,6,6,9,4,,0.00,1,,344
2013-8-30,105,86,66,54,41,32,56,24,8,29.77,29.72,29.65,6,6,6,10,5,,0.00,2,,306
2013-8-31,100,81,62,50,40,30,63,27,9,29.80,29.77,29.74,,,,17,8,29,0.00,,,1